CW7218 Weather Reports


time (UTC)temp
F
wind
direction
speed
knots
gust
knots
rain 1hr
in
rain 24hr
in
rain mn
in
humidity
%
barometer
mb
20260906031017 74 0 0.9 2.6 0.00 0.00 0.00 54 1024.6
20260906030017 73 315 1.7 3.5 0.00 0.00 0.00 57 1024.5
20260906025016 72 23 2.6 7.0 0.00 0.00 0.00 58 1024.4
20260906024016 72 23 5.2 7.8 0.00 0.00 0.00 60 1024.4
20260906023016 73 23 6.1 8.7 0.00 0.00 0.00 58 1024.4
20260906022016 73 45 6.1 8.7 0.00 0.00 0.00 58 1024.6
20260906021016 73 45 5.2 9.6 0.00 0.00 0.00 59 1024.7
20260906020016 73 45 5.2 7.8 0.00 0.00 0.00 58 1024.8
20260906015016 73 45 5.2 7.8 0.00 0.00 0.00 58 1024.8
20260906014018 73 45 3.5 5.2 0.00 0.00 0.00 59 1024.8
20260906013018 73 45 5.2 7.8 0.00 0.00 0.00 59 1024.8
20260906012018 73 45 4.3 7.0 0.00 0.00 0.00 58 1024.9
20260906011018 73 45 2.6 5.2 0.00 0.00 0.00 58 1024.9
20260906010018 73 45 3.5 5.2 0.00 0.00 0.00 59 1024.9
20260906005018 74 45 4.3 7.0 0.00 0.00 0.00 58 1025.1
20260906004018 74 45 1.7 5.2 0.00 0.00 0.00 56 1025.0
20260906003018 74 45 2.6 4.3 0.00 0.00 0.00 57 1025.1
20260906002038 74 45 4.3 6.1 0.00 0.00 0.00 57 1025.1
20260906001018 75 45 4.3 6.1 0.00 0.00 0.00 57 1025.2
20260906000037 75 45 3.5 6.1 0.00 0.00 0.00 57 1025.3
20260905235018 75 45 1.7 2.6 0.00 0.00 0.00 56 1025.2
20260905234018 75 23 3.5 5.2 0.00 0.00 0.00 56 1025.2
20260905233018 75 45 5.2 7.8 0.00 0.00 0.00 58 1025.2
20260905232018 75 45 5.2 7.0 0.00 0.00 0.00 57 1025.3
20260905231018 76 45 4.3 6.1 0.00 0.00 0.00 55 1025.3
20260905230039 76 23 4.3 7.8 0.00 0.00 0.00 55 1025.3
20260905225018 76 45 5.2 7.8 0.00 0.00 0.00 56 1025.4
20260905224038 77 45 4.3 7.0 0.00 0.00 0.00 54 1025.4
20260905223058 78 23 1.7 3.5 0.00 0.00 0.00 51 1025.4
20260905222018 77 23 2.6 4.3 0.00 0.00 0.00 51 1025.3
20260905221018 78 45 2.6 5.2 0.00 0.00 0.00 52 1025.4
20260905220038 78 338 1.7 6.1 0.00 0.00 0.00 50 1025.3
20260905215018 78 45 2.6 3.5 0.00 0.00 0.00 50 1025.4
20260905214018 79 45 1.7 2.6 0.00 0.00 0.00 49 1025.5
20260905213018 79 0 1.7 4.3 0.00 0.00 0.00 49 1025.6
20260905212018 79 338 3.5 6.1 0.00 0.00 0.00 50 1025.4
20260905211018 79 45 1.7 3.5 0.00 0.00 0.00 50 1025.4
20260905210018 80 68 0.9 2.6 0.00 0.00 0.00 50 1025.5
20260905205018 80 45 1.7 4.3 0.00 0.00 0.00 50 1025.4
20260905204018 80 338 2.6 6.1 0.00 0.00 0.00 49 1025.5
20260905203017 81 338 4.3 7.8 0.00 0.00 0.00 49 1025.4
20260905202038 81 338 3.5 7.0 0.00 0.00 0.00 49 1025.1
20260905201018 81 338 5.2 7.8 0.00 0.00 0.00 50 1025.0
20260905200017 81 338 4.3 7.0 0.00 0.00 0.00 49 1024.9
20260905195018 81 338 3.5 6.1 0.00 0.00 0.00 49 1024.7
20260905194018 82 338 4.3 6.1 0.00 0.00 0.00 49 1024.7
20260905193018 82 338 4.3 6.1 0.00 0.00 0.00 49 1024.6
20260905192017 82 338 4.3 7.0 0.00 0.00 0.00 48 1024.2
20260905191038 83 338 3.5 6.1 0.00 0.00 0.00 47 1024.3
20260905190017 83 338 0.9 2.6 0.00 0.00 0.00 47 1024.5
20260905185017 84 315 2.6 5.2 0.00 0.00 0.00 46 1024.3
20260905184017 84 270 3.5 4.3 0.00 0.00 0.00 45 1024.4
20260905183017 85 270 3.5 5.2 0.00 0.00 0.00 45 1024.3
20260905182017 85 270 2.6 5.2 0.00 0.00 0.00 44 1024.1
20260905181037 86 248 3.5 5.2 0.00 0.00 0.00 44 1024.0
20260905180037 86 225 3.5 6.1 0.00 0.00 0.00 42 1023.9
20260905175037 87 0 3.5 7.0 0.00 0.00 0.00 42 1024.0
20260905174017 87 0 3.5 6.1 0.00 0.00 0.00 41 1024.0
20260905173037 88 0 2.6 6.1 0.00 0.00 0.00 40 1024.0
20260905172017 88 0 4.3 7.0 0.00 0.00 0.00 39 1024.0
20260905171037 89 0 3.5 7.8 0.00 0.00 0.00 39 1024.0
20260905170017 89 0 4.3 11.3 0.00 0.00 0.00 38 1024.0
20260905165017 89 0 5.2 12.2 0.00 0.00 0.00 38 1023.7
20260905164017 90 0 5.2 10.4 0.00 0.00 0.00 38 1023.7
20260905163018 90 0 5.2 10.4 0.00 0.00 0.00 37 1023.6
20260905162017 90 0 7.0 13.0 0.00 0.00 0.00 37 1023.6
20260905161037 91 0 7.0 13.0 0.00 0.00 0.00 37 1023.5
20260905160017 91 0 7.8 13.9 0.00 0.00 0.00 37 1023.4
20260905155017 91 0 10.4 18.2 0.00 0.00 0.00 37 1023.5
20260905154017 92 0 7.0 18.2 0.00 0.00 0.00 36 1023.4
20260905153017 92 0 10.4 20.0 0.00 0.00 0.00 36 1023.3
20260905152017 93 0 7.8 13.9 0.00 0.00 0.00 36 1023.3
20260905151017 93 0 7.8 17.4 0.00 0.00 0.00 35 1023.3
20260905150017 94 0 8.7 15.6 0.00 0.00 0.00 33 1023.5
20260905145037 94 0 8.7 16.5 0.00 0.00 0.00 31 1023.3
20260905144017 94 0 10.4 17.4 0.00 0.00 0.00 31 1023.3
20260905143016 95 0 8.7 18.2 0.00 0.00 0.00 30 1023.3
20260905142017 94 0 9.6 19.1 0.00 0.00 0.00 30 1023.4
20260905141017 95 0 8.7 18.2 0.00 0.00 0.00 31 1023.6
20260905140016 95 0 8.7 18.2 0.00 0.00 0.00 30 1023.5
20260905135017 95 0 7.8 15.6 0.00 0.00 0.00 30 1023.6
20260905134017 95 0 9.6 19.1 0.00 0.00 0.00 30 1023.7
20260905133016 95 0 7.8 15.6 0.00 0.00 0.00 31 1023.7
20260905132017 94 0 7.8 15.6 0.00 0.00 0.00 31 1023.8
20260905131016 94 0 8.7 16.5 0.00 0.00 0.00 32 1023.9
20260905130016 94 203 9.6 16.5 0.00 0.00 0.00 33 1024.0
20260905125016 94 180 7.8 17.4 0.00 0.00 0.00 33 1024.2
20260905124016 94 0 8.7 19.1 0.00 0.00 0.00 33 1024.2
20260905123016 94 0 7.8 13.9 0.00 0.00 0.00 32 1024.2
20260905122016 94 203 7.0 16.5 0.00 0.00 0.00 32 1024.2
20260905121016 93 203 7.8 14.8 0.00 0.00 0.00 32 1024.2
20260905120016 93 225 7.8 14.8 0.00 0.00 0.00 32 1024.4
20260905115016 93 203 6.1 13.9 0.00 0.00 0.00 33 1024.6
20260905114016 92 0 6.1 12.2 0.00 0.00 0.00 35 1024.5
20260905113036 91 0 5.2 12.2 0.00 0.00 0.00 36 1024.7
20260905112036 91 0 5.2 10.4 0.00 0.00 0.00 38 1024.7
20260905111017 90 158 4.3 9.6 0.00 0.00 0.00 38 1024.8
20260905110016 89 203 4.3 9.6 0.00 0.00 0.00 40 1024.8
20260905105036 89 180 4.3 7.0 0.00 0.00 0.00 40 1025.0
20260905104016 89 158 3.5 7.0 0.00 0.00 0.00 41 1025.1
20260905103018 89 180 1.7 4.3 0.00 0.00 0.00 41 1025.2
20260905102018 88 180 2.6 5.2 0.00 0.00 0.00 41 1025.4
20260905101018 88 180 1.7 5.2 0.00 0.00 0.00 42 1025.5
20260905100018 88 135 1.7 5.2 0.00 0.00 0.00 43 1025.6
20260905095018 87 135 1.7 3.5 0.00 0.00 0.00 44 1025.7
20260905094038 87 158 1.7 4.3 0.00 0.00 0.00 44 1025.6
20260905093018 87 113 1.7 5.2 0.00 0.00 0.00 44 1025.6
20260905092018 87 225 0.9 3.5 0.00 0.00 0.00 43 1025.7
20260905091018 87 0 0.9 1.7 0.00 0.00 0.00 43 1025.7
20260905090018 86 113 1.7 4.3 0.00 0.00 0.00 43 1025.7
20260905085018 85 0 0.9 2.6 0.00 0.00 0.00 44 1025.6
20260905084018 84 90 0.9 2.6 0.00 0.00 0.00 45 1025.5
20260905083038 83 90 1.7 2.6 0.00 0.00 0.00 46 1025.3
20260905082018 82 90 1.7 5.2 0.00 0.00 0.00 46 1025.2
20260905081017 80 90 0.9 2.6 0.00 0.00 0.00 50 1025.0
20260905080017 78 45 3.5 5.2 0.00 0.00 0.00 51 1024.8
20260905075018 77 45 4.3 7.0 0.00 0.00 0.00 53 1024.8
20260905074037 76 45 5.2 7.8 0.00 0.00 0.00 54 1024.7
20260905073038 75 45 6.1 8.7 0.00 0.00 0.00 55 1024.6
20260905072018 75 45 5.2 7.8 0.00 0.00 0.00 55 1024.7
20260905071018 74 45 6.1 10.4 0.00 0.00 0.00 56 1024.6
20260905070037 74 68 5.2 8.7 0.00 0.00 0.00 56 1024.6
20260905065018 74 45 4.3 7.0 0.00 0.00 0.00 56 1024.6
20260905064018 73 45 4.3 7.0 0.00 0.00 0.00 56 1024.5
20260905063017 73 45 5.2 7.0 0.00 0.00 0.00 57 1024.2
20260905062017 72 45 4.3 7.8 0.00 0.00 0.00 58 1024.3
20260905061017 72 23 5.2 8.7 0.00 0.00 0.00 59 1024.2
20260905060037 71 23 5.2 7.8 0.00 0.00 0.00 60 1024.0
20260905055017 71 45 6.1 8.7 0.00 0.00 0.00 60 1024.0
20260905054017 71 45 6.1 7.8 0.00 0.00 0.00 60 1024.2
20260905053017 72 45 7.0 10.4 0.00 0.00 0.00 60 1024.1
20260905052017 73 45 6.1 10.4 0.00 0.00 0.00 58 1024.1
20260905051017 72 45 1.7 4.3 0.00 0.00 0.00 61 1024.3
20260905050017 72 45 5.2 7.0 0.00 0.00 0.00 60 1024.2
20260905045017 73 45 5.2 8.7 0.00 0.00 0.00 60 1024.2
20260905044017 72 45 5.2 8.7 0.00 0.00 0.00 60 1024.2
20260905043017 72 45 5.2 7.8 0.00 0.00 0.00 60 1024.1
20260905042037 72 45 5.2 7.8 0.00 0.00 0.00 61 1024.1
20260905041017 72 45 6.1 7.8 0.00 0.00 0.00 61 1024.2
20260905040037 73 45 4.3 7.0 0.00 0.00 0.00 61 1024.1
20260905035017 73 45 5.2 8.7 0.00 0.00 0.00 61 1024.1
20260905034017 73 45 7.0 9.6 0.00 0.00 0.00 61 1024.3
20260905033017 73 45 5.2 7.8 0.00 0.00 0.00 62 1024.2
20260905032017 73 45 6.1 9.6 0.00 0.00 0.00 63 1024.3